Location: Mountain Grove
(34.0887°N, 86.6172°W)
Time: 22:06:46
(UTC+00:00)

Cosmos 2173 Rocket - Pass Details

Date: 14 July 2020
Orbit: 944 x 1002 km, 83.0° (Epoch: 08 August)

Event Time Altitude Azimuth Distance (km) Brightness Sun altitude
Exits shadow 06:56:52 70° 56° (NE) 1,059 4.2 -32.2°
Drops below altitude 10° 07:02:39 10° 10° (N) 2,755 7.2 -31.9°
Sets 07:05:10 0° 9° (N) 3,699 8.1 -31.7°
